Regional Weather Roundup
Issued by NWS

Home | Current Version | Previous Version | Text Only | Print | Product List | Glossary On
Versions: 1 2 3 4 5 6 7 8 9 10 11 12 13 14 15 16 17 18 19 20 21 22 23 24 25 26 27 28 29 30 31 32 33 34 35 36 37 38 39 40 41 42 43 44 45 46 47 48 49 50
000
ASUS44 KOUN 272110
RWROK

WEATHER ROUNDUP FOR OKLAHOMA
NATIONAL WEATHER SERVICE NORMAN OK
400 PM CDT THU JUL 27 2017

NOTE: "FAIR" INDICATES FEW OR NO CLOUDS BELOW 12,000 FEET WITH NO
      SIGNIFICANT WEATHER AND/OR OBSTRUCTIONS TO VISIBILITY.

OKZ001>007-009>012-014-015-017-272200-
NORTHWEST OKLAHOMA AND THE PANHANDLE

CITY           SKY/WX    TMP DP  RH WIND       PRES   REMARKS
GAGE           CLOUDY    90  71  53 NE10G16   30.03F HX  96
GUYMON         CLOUDY    83  67  58 N7        30.09F
ENID/WOODRING  PTSUNNY   93  75  55 W9        29.92F HX 104
$$

OKZ016-021>023-033>039-044-045-272200-
SOUTHWEST OKLAHOMA

CITY           SKY/WX    TMP DP  RH WIND       PRES   REMARKS
LAWTON/REGL    MOSUNNY  102  62  26 W9        29.92F HX 104
LAWTON/FT SILL MOSUNNY   99  70  39 CALM      29.91F HX 107
FREDERICK      CLOUDY   101  62  27 SW8       29.90F HX 102
CLINTON        MOSUNNY   96  68  39 N7G17     29.97F HX 101
HOBART         CLOUDY   101  63  28 SW9       29.94F HX 103
ALTUS AFB      CLOUDY    99  61  28 S14       29.92F HX 100
$$

OKZ018>020-024>031-272200-
CENTRAL OKLAHOMA

CITY           SKY/WX    TMP DP  RH WIND       PRES   REMARKS
OKLAHOMA CITY  CLOUDY    96  64  34 SW8       29.92F HX  98
OKC/WILEY POST CLOUDY    96  68  39 SE3       29.92F HX 101
OKC/TINKER AFB MOSUNNY   97  65  34 SW3       29.92F HX 100
STILLWATER     CLOUDY    91  70  49 S3        29.92F HX  96
GUTHRIE        CLOUDY    92  71  50 CALM      29.92F HX  98
$$

OKZ008-013-054>072-272200-
NORTHEAST OKLAHOMA

CITY           SKY/WX    TMP DP  RH WIND       PRES   REMARKS
TULSA          CLOUDY    90  71  53 SW9       29.89F HX  96
TULSA/JONES    CLOUDY    90  71  53 SW7       29.91F HX  96
PONCA CITY     CLOUDY    91  73  55 VRB3      29.92F HX  99
BARTLESVILLE   CLOUDY    93  72  50 SW10      29.91S HX 101
MUSKOGEE       CLOUDY    89  75  63 S7        29.92F HX  99
$$

OKZ032-040>043-046>053-073>077-272200-
SOUTH CENTRAL/SOUTHEAST OKLAHOMA

CITY           SKY/WX    TMP DP  RH WIND       PRES   REMARKS
ARDMORE/DWNTWN PTSUNNY   99  59  26 NW3       29.92F HX  98
MCALESTER      CLOUDY    97  76  50 S9        29.92F HX 110
$$





USA.gov is the U.S. government's official web portal to all federal, state and local government web resources and services.